When you browse on this site, cookies collect data to enhance your experience and personalize the content and advertising you see.
Visit our Privacy Policy to learn more. By continuing to use the site, you agree to this use of cookies and data.
  • în România
  • Lista ţărilor
  • Pe 7 zile
  • Temperatura apei
  • Meteo pe hartă
  • Widget-uri
  • user-avatar
    Intrare

    Meteo pe oră la Mansoa

    Astăzi, 21 August, Miercuri

    Timp Temperatura Precipitaţii Vânt Presiune Umiditate
    00:00 +26°C° 0 mm 2 m/s 757 mmHg 96%
    01:00 +26°C° 0 mm 2 m/s 757 mmHg 96%
    02:00 +26°C° 0 mm 2 m/s 756 mmHg 96%
    03:00 +26°C° 0 mm 1 m/s 756 mmHg 96%
    04:00 +26°C° 0 mm 1 m/s 756 mmHg 96%
    05:00 +26°C° 0 mm 1 m/s 756 mmHg 96%
    06:00 +27°C° 0 mm 1 m/s 757 mmHg 94%
    07:00 +27°C° 0 mm 1 m/s 757 mmHg 91%
    08:00 +28°C° 0 mm 1 m/s 757 mmHg 88%
    09:00 +29°C° 0.1 mm 1 m/s 757 mmHg 84%
    10:00 +30°C° 0.1 mm 1 m/s 757 mmHg 80%
    11:00 +31°C° 0.1 mm 1 m/s 757 mmHg 76%
    12:00 +31°C° 0.5 mm 1 m/s 756 mmHg 75%
    13:00 +32°C° 0.5 mm 2 m/s 755 mmHg 74%
    14:00 +32°C° 0.5 mm 2 m/s 755 mmHg 72%
    15:00 +31°C° 2.3 mm 2 m/s 755 mmHg 77%
    16:00 +30°C° 2.3 mm 3 m/s 755 mmHg 83%
    17:00 +29°C° 2.3 mm 3 m/s 755 mmHg 88%
    18:00 +28°C° 3.7 mm 3 m/s 755 mmHg 90%
    19:00 +27°C° 3.7 mm 2 m/s 756 mmHg 93%
    20:00 +27°C° 3.7 mm 2 m/s 756 mmHg 95%
    21:00 +26°C° 1.8 mm 2 m/s 756 mmHg 95%
    22:00 +26°C° 1.8 mm 2 m/s 756 mmHg 96%
    23:00 +26°C° 1.8 mm 3 m/s 757 mmHg 96%

    Mâine, 22 August, Joi

    Timp Temperatura Precipitaţii Vânt Presiune Umiditate
    00:00 +25°C° 1.1 mm 2 m/s 756 mmHg 96%
    01:00 +25°C° 1.1 mm 2 m/s 756 mmHg 96%
    02:00 +25°C° 1.1 mm 1 m/s 755 mmHg 97%
    03:00 +25°C° 0.5 mm 1 m/s 755 mmHg 97%
    04:00 +25°C° 0.5 mm 2 m/s 755 mmHg 97%
    05:00 +25°C° 0.5 mm 2 m/s 755 mmHg 97%
    06:00 +25°C° 1.9 mm 2 m/s 756 mmHg 97%
    07:00 +25°C° 1.9 mm 2 m/s 756 mmHg 96%
    08:00 +26°C° 1.9 mm 2 m/s 757 mmHg 96%
    09:00 +25°C° 6.7 mm 2 m/s 757 mmHg 96%
    10:00 +25°C° 6.7 mm 3 m/s 757 mmHg 97%
    11:00 +25°C° 6.7 mm 3 m/s 757 mmHg 98%
    12:00 +26°C° 2.5 mm 4 m/s 757 mmHg 95%
    13:00 +26°C° 2.5 mm 4 m/s 757 mmHg 92%
    14:00 +27°C° 2.5 mm 5 m/s 756 mmHg 90%
    15:00 +26°C° 0.4 mm 4 m/s 756 mmHg 90%
    16:00 +26°C° 0.4 mm 4 m/s 756 mmHg 91%
    17:00 +26°C° 0.4 mm 4 m/s 756 mmHg 91%
    18:00 +26°C° 1.1 mm 4 m/s 757 mmHg 92%
    19:00 +26°C° 1.1 mm 4 m/s 757 mmHg 93%
    20:00 +26°C° 1.1 mm 4 m/s 758 mmHg 93%
    21:00 +26°C° 0.7 mm 4 m/s 758 mmHg 93%
    22:00 +26°C° 0.7 mm 4 m/s 758 mmHg 93%
    23:00 +26°C° 0.7 mm 4 m/s 759 mmHg 93%

    Poimâine, 23 August, Vineri

    Timp Temperatura Precipitaţii Vânt Presiune Umiditate
    00:00 +25°C° 0.4 mm 4 m/s 758 mmHg 93%
    01:00 +25°C° 0.4 mm 3 m/s 758 mmHg 94%
    02:00 +25°C° 0.4 mm 3 m/s 758 mmHg 94%
    03:00 +25°C° 0.1 mm 3 m/s 758 mmHg 95%
    04:00 +25°C° 0.1 mm 3 m/s 758 mmHg 95%
    05:00 +25°C° 0.1 mm 3 m/s 758 mmHg 95%
    06:00 +26°C° 0.2 mm 3 m/s 758 mmHg 93%
    07:00 +27°C° 0.2 mm 4 m/s 759 mmHg 91%
    08:00 +27°C° 0.2 mm 4 m/s 759 mmHg 89%
    09:00 +28°C° 0.4 mm 4 m/s 759 mmHg 87%
    10:00 +29°C° 0.4 mm 5 m/s 759 mmHg 84%
    11:00 +29°C° 0.4 mm 5 m/s 759 mmHg 82%
    12:00 +30°C° 1.3 mm 5 m/s 758 mmHg 81%
    13:00 +30°C° 1.3 mm 6 m/s 758 mmHg 79%
    14:00 +30°C° 1.3 mm 6 m/s 758 mmHg 78%
    15:00 +29°C° 0.1 mm 5 m/s 758 mmHg 80%
    16:00 +29°C° 0.1 mm 5 m/s 757 mmHg 82%
    17:00 +28°C° 0.1 mm 4 m/s 757 mmHg 83%
    18:00 +28°C° 0 mm 4 m/s 758 mmHg 85%
    19:00 +27°C° 0 mm 3 m/s 759 mmHg 88%
    20:00 +26°C° 0 mm 2 m/s 759 mmHg 90%
    21:00 +26°C° 0.1 mm 2 m/s 759 mmHg 91%
    22:00 +26°C° 0.1 mm 2 m/s 759 mmHg 92%
    23:00 +26°C° 0.1 mm 2 m/s 759 mmHg 93%

    24 August, Sâmbătă

    Timp Temperatura Precipitaţii Vânt Presiune Umiditate
    00:00 +26°C° 0.1 mm 2 m/s 759 mmHg 94%
    01:00 +26°C° 0.1 mm 2 m/s 759 mmHg 94%
    02:00 +25°C° 0.1 mm 2 m/s 758 mmHg 95%
    03:00 +25°C° 0.2 mm 2 m/s 758 mmHg 95%
    04:00 +25°C° 0.2 mm 2 m/s 758 mmHg 95%
    05:00 +25°C° 0.2 mm 1 m/s 758 mmHg 95%
    06:00 +26°C° 0.4 mm 2 m/s 759 mmHg 93%
    07:00 +27°C° 0.4 mm 2 m/s 759 mmHg 90%
    08:00 +28°C° 0.4 mm 2 m/s 759 mmHg 87%
    09:00 +28°C° 1.4 mm 3 m/s 759 mmHg 86%
    10:00 +29°C° 1.4 mm 3 m/s 759 mmHg 84%
    11:00 +30°C° 1.4 mm 4 m/s 759 mmHg 83%
    12:00 +30°C° 1.6 mm 4 m/s 758 mmHg 82%
    13:00 +30°C° 1.6 mm 5 m/s 758 mmHg 82%
    14:00 +30°C° 1.6 mm 5 m/s 757 mmHg 81%
    15:00 +29°C° 1.1 mm 5 m/s 757 mmHg 84%
    16:00 +29°C° 1.1 mm 4 m/s 757 mmHg 86%
    17:00 +28°C° 1.1 mm 4 m/s 757 mmHg 88%
    18:00 +27°C° 0.5 mm 4 m/s 757 mmHg 89%
    19:00 +27°C° 0.5 mm 3 m/s 758 mmHg 91%
    20:00 +26°C° 0.5 mm 3 m/s 759 mmHg 93%
    21:00 +26°C° 0.1 mm 3 m/s 759 mmHg 93%
    22:00 +26°C° 0.1 mm 2 m/s 759 mmHg 94%
    23:00 +26°C° 0.1 mm 2 m/s 759 mmHg 94%

    25 August, Duminică

    Timp Temperatura Precipitaţii Vânt Presiune Umiditate
    00:00 +26°C° 1 mm 2 m/s 758 mmHg 94%
    01:00 +26°C° 1 mm 2 m/s 758 mmHg 95%
    02:00 +26°C° 1 mm 2 m/s 758 mmHg 95%
    03:00 +26°C° 0.6 mm 2 m/s 757 mmHg 95%
    04:00 +26°C° 0.6 mm 2 m/s 757 mmHg 95%
    05:00 +26°C° 0.6 mm 2 m/s 757 mmHg 95%
    06:00 +26°C° 0.2 mm 2 m/s 757 mmHg 94%
    07:00 +26°C° 0.2 mm 2 m/s 758 mmHg 93%
    08:00 +27°C° 0.2 mm 3 m/s 758 mmHg 91%
    09:00 +27°C° 1.5 mm 3 m/s 758 mmHg 91%
    10:00 +28°C° 1.5 mm 3 m/s 758 mmHg 90%
    11:00 +28°C° 1.5 mm 3 m/s 758 mmHg 89%
    12:00 +28°C° 1.7 mm 3 m/s 757 mmHg 90%
    13:00 +27°C° 1.7 mm 3 m/s 757 mmHg 91%
    14:00 +27°C° 1.7 mm 4 m/s 756 mmHg 92%
    15:00 +27°C° 1.6 mm 4 m/s 757 mmHg 93%
    16:00 +26°C° 1.6 mm 3 m/s 757 mmHg 94%
    17:00 +26°C° 1.6 mm 3 m/s 757 mmHg 95%
    18:00 +26°C° 5.1 mm 3 m/s 757 mmHg 96%
    19:00 +25°C° 5.1 mm 2 m/s 758 mmHg 97%
    20:00 +25°C° 5.1 mm 2 m/s 758 mmHg 98%
    21:00 +25°C° 0.8 mm 2 m/s 758 mmHg 98%
    22:00 +25°C° 0.8 mm 2 m/s 758 mmHg 97%
    23:00 +25°C° 0.8 mm 1 m/s 758 mmHg 97%

    26 August, Luni

    Timp Temperatura Precipitaţii Vânt Presiune Umiditate
    00:00 +25°C° 0 mm 1 m/s 758 mmHg 97%
    01:00 +25°C° 0 mm 1 m/s 757 mmHg 97%
    02:00 +25°C° 0 mm 1 m/s 757 mmHg 97%
    03:00 +25°C° 0.6 mm 1 m/s 757 mmHg 97%
    04:00 +25°C° 0.6 mm 1 m/s 757 mmHg 98%
    05:00 +24°C° 0.6 mm 1 m/s 757 mmHg 98%
    06:00 +25°C° 1.8 mm 1 m/s 757 mmHg 97%
    07:00 +23°C° 1.8 mm 0 m/s 757 mmHg 97%
    08:00 +24°C° 1.8 mm 0 m/s 758 mmHg 96%
    09:00 +26°C° 1.1 mm 1 m/s 758 mmHg 93%
    10:00 +27°C° 1.1 mm 1 m/s 758 mmHg 91%
    11:00 +28°C° 1.1 mm 2 m/s 758 mmHg 88%
    12:00 +28°C° 0.8 mm 2 m/s 758 mmHg 85%
    13:00 +29°C° 0.8 mm 2 m/s 757 mmHg 82%
    14:00 +29°C° 0.8 mm 3 m/s 756 mmHg 79%
    15:00 +28°C° 1 mm 3 m/s 756 mmHg 83%
    16:00 +27°C° 1 mm 3 m/s 756 mmHg 87%
    17:00 +26°C° 1 mm 3 m/s 757 mmHg 90%
    18:00 +26°C° 0.3 mm 3 m/s 757 mmHg 92%
    19:00 +26°C° 0.3 mm 3 m/s 758 mmHg 93%
    20:00 +25°C° 0.3 mm 2 m/s 758 mmHg 94%
    21:00 +25°C° 0.1 mm 2 m/s 759 mmHg 94%
    22:00 +25°C° 0.1 mm 2 m/s 759 mmHg 95%
    23:00 +25°C° 0.1 mm 2 m/s 759 mmHg 95%
    Arată mai mult